Mount Airy, NC

5:00 PM EST on December 08, 2019 (GMT -0500)
Mount Airy-Surry County

Weather History for KMWK - October, 2019

Change the Weather History Date:

Thursday, October 10, 2019

  Actual Average (KINT) Record (KINT)
Temperature  
Mean Temperature 65 °F -  
Max Temperature 74 °F 70 °F 89 °F (1997)
Min Temperature 55 °F 50 °F 30 °F (1987)
Growing Degree Days 15 (Base 50)    
Moisture  
Dew Point 56 °F    
Average Humidity 76    
Maximum Humidity 89    
Minimum Humidity 52    
Precipitation  
Precipitation 0.00 in - - ()
Sea Level Pressure  
Sea Level Pressure 30.23 in    
Wind  
Wind Speed 2 mph ()    
Max Wind Speed 9 mph    
Max Gust Speed -    
Visibility 10.0 miles    
Events      
Averages and records for this station are not official NWS values.
T = Trace of Precipitation, MM = Missing Value Source: Averaged Metar Reports

Daily Weather History Graph

Daily Weather History Graph

Search for Another Location

Airport or City:

Astronomy

Oct. 10, 2019 Rise Set
Actual Time 7:24 AM EDT 6:53 PM EDT
Civil Twilight 6:58 AM EDT 7:18 PM EDT
Nautical Twilight 6:29 AM EDT 7:48 PM EDT
Astronomical Twilight 5:59 AM EDT 8:18 PM EDT
Moon 5:47 PM EDT (10/10) 4:14 AM EDT (10/10)
Length of Visible Light 12h 19m
Length of Day
11h 28m
Waxing Gibbous, 91% of the Moon is Illuminated
Oct 10
Waxing Gibbous
Oct 13
Full
Oct 21
Last Quarter
Oct 27
New
Nov 4
First Quarter

Hourly Weather History & Observations

Time (EDT) Temp. Dew Point Humidity Pressure Visibility Wind Dir Wind Speed Gust Speed Precip Events Conditions
12:15 AM 61.9 °F 55.4 °F 79% 30.24 in 10.0 mi East 5.8 mph - N/A   Clear
12:35 AM 61.2 °F 55.4 °F 81% 30.24 in 10.0 mi East 6.9 mph - N/A   Scattered Clouds
12:55 AM 61.2 °F 55.4 °F 81% 30.25 in 10.0 mi East 3.5 mph - N/A   Mostly Cloudy
1:15 AM 61.7 °F 55.8 °F 81% 30.25 in 10.0 mi Calm Calm - N/A   Overcast
1:35 AM 61.7 °F 55.6 °F 80% 30.26 in 10.0 mi East 3.5 mph - N/A   Overcast
1:55 AM 61.7 °F 55.6 °F 80% 30.26 in 10.0 mi East 4.6 mph - N/A   Overcast
2:15 AM 61.7 °F 55.6 °F 80% 30.26 in 10.0 mi ENE 3.5 mph - N/A   Overcast
2:35 AM 61.3 °F 55.6 °F 81% 30.26 in 10.0 mi East 3.5 mph - N/A   Overcast
2:55 AM 61.2 °F 55.6 °F 82% 30.25 in 10.0 mi Calm Calm - N/A   Overcast
3:15 AM 61.2 °F 55.6 °F 82% 30.25 in 10.0 mi Calm Calm - N/A   Overcast
3:55 AM 61.2 °F 55.4 °F 81% 30.25 in 10.0 mi Calm Calm - N/A   Overcast
4:15 AM 61.0 °F 55.6 °F 82% 30.25 in 10.0 mi Calm Calm - N/A   Overcast
4:35 AM 60.8 °F 55.4 °F 82% 30.25 in 10.0 mi ENE 3.5 mph - N/A   Overcast
4:55 AM 60.3 °F 55.0 °F 83% 30.25 in 10.0 mi East 3.5 mph - N/A   Overcast
5:15 AM 59.9 °F 54.9 °F 83% 30.24 in 10.0 mi East 4.6 mph - N/A   Mostly Cloudy
5:35 AM 58.8 °F 54.3 °F 85% 30.25 in 10.0 mi ENE 4.6 mph - N/A   Mostly Cloudy
5:55 AM 58.3 °F 54.0 °F 86% 30.25 in 10.0 mi East 3.5 mph - N/A   Clear
6:15 AM 57.6 °F 53.6 °F 87% 30.25 in 10.0 mi Calm Calm - N/A   Clear
6:35 AM 58.1 °F 53.6 °F 85% 30.27 in 10.0 mi East 3.5 mph - N/A   Mostly Cloudy
6:55 AM 58.5 °F 54.1 °F 86% 30.27 in 10.0 mi ENE 3.5 mph - N/A   Overcast
7:15 AM 58.3 °F 54.5 °F 87% 30.27 in 10.0 mi ENE 3.5 mph - N/A   Overcast
7:35 AM 58.1 °F 54.3 °F 87% 30.27 in 10.0 mi Calm Calm - N/A   Overcast
7:55 AM 57.7 °F 54.1 °F 88% 30.27 in 10.0 mi Calm Calm - N/A   Overcast
8:15 AM 58.1 °F 54.5 °F 88% 30.28 in 10.0 mi Calm Calm - N/A   Overcast
8:35 AM 58.5 °F 54.7 °F 87% 30.28 in 10.0 mi Calm Calm - N/A   Overcast
8:55 AM 58.6 °F 54.7 °F 87% 30.29 in 10.0 mi Calm Calm - N/A   Overcast
9:15 AM 59.0 °F 55.0 °F 87% 30.29 in 10.0 mi Calm Calm - N/A   Overcast
9:35 AM 59.4 °F 55.0 °F 86% 30.29 in 10.0 mi Calm Calm - N/A   Overcast
9:55 AM 59.5 °F 55.2 °F 86% 30.29 in 10.0 mi Calm Calm - N/A   Overcast
10:15 AM 60.3 °F 55.4 °F 84% 30.28 in 10.0 mi Calm Calm - N/A   Overcast
10:35 AM 61.2 °F 55.9 °F 83% 30.28 in 10.0 mi Calm Calm - N/A   Overcast
10:55 AM 62.6 °F 57.0 °F 82% 30.28 in 10.0 mi Calm Calm - N/A   Overcast
11:15 AM 62.6 °F 57.0 °F 82% 30.27 in 10.0 mi South 3.5 mph - N/A   Overcast
11:35 AM 64.0 °F 57.6 °F 79% 30.27 in 10.0 mi Calm Calm - N/A   Overcast
11:55 AM 64.8 °F 57.7 °F 78% 30.26 in 10.0 mi Calm Calm - N/A   Mostly Cloudy
12:15 PM 67.1 °F 58.8 °F 75% 30.25 in 10.0 mi SSE 3.5 mph - N/A   Clear
12:35 PM 67.5 °F 58.3 °F 72% 30.25 in 10.0 mi Calm Calm - N/A   Scattered Clouds
12:55 PM 69.8 °F 58.6 °F 68% 30.24 in 10.0 mi East 6.9 mph - N/A   Scattered Clouds
1:15 PM 70.3 °F 58.6 °F 66% 30.23 in 10.0 mi East 3.5 mph - N/A   Scattered Clouds
1:35 PM 71.6 °F 59.5 °F 66% 30.23 in 10.0 mi Calm Calm - N/A   Clear
2:15 PM 72.5 °F 59.4 °F 63% 30.21 in 10.0 mi East 5.8 mph - N/A   Clear
2:35 PM 72.9 °F 59.2 °F 62% 30.20 in 10.0 mi ESE 4.6 mph - N/A   Scattered Clouds
2:55 PM 73.6 °F 58.8 °F 60% 30.19 in 10.0 mi ESE 3.5 mph - N/A   Scattered Clouds
3:15 PM 74.3 °F 58.5 °F 58% 30.19 in 10.0 mi East 9.2 mph - N/A   Clear
3:35 PM 74.1 °F 57.9 °F 57% 30.18 in 10.0 mi ESE 8.1 mph - N/A   Clear
3:55 PM 74.7 °F 58.1 °F 56% 30.18 in 10.0 mi ESE 8.1 mph - N/A   Clear
4:15 PM 74.1 °F 57.9 °F 57% 30.17 in 10.0 mi ESE 6.9 mph - N/A   Clear
4:35 PM 74.3 °F 57.6 °F 56% 30.18 in 10.0 mi ENE 5.8 mph - N/A   Clear
4:55 PM 74.5 °F 57.0 °F 54% 30.17 in 10.0 mi East 5.8 mph - N/A   Clear
5:35 PM 74.1 °F 55.4 °F 52% 30.18 in 10.0 mi ENE 3.5 mph - N/A   Clear
5:55 PM 73.6 °F 55.2 °F 53% 30.18 in 10.0 mi East 8.1 mph - N/A   Clear
6:35 PM 71.4 °F 53.8 °F 54% 30.18 in 10.0 mi East 3.5 mph - N/A   Clear
6:55 PM 69.8 °F 54.7 °F 59% 30.18 in 10.0 mi Calm Calm - N/A   Clear
7:15 PM 66.9 °F 56.3 °F 69% 30.18 in 10.0 mi Calm Calm - N/A   Clear
7:35 PM 65.3 °F 56.3 °F 73% 30.18 in 10.0 mi Calm Calm - N/A   Clear
7:55 PM 65.3 °F 55.0 °F 69% 30.19 in 10.0 mi Calm Calm - N/A   Clear
8:15 PM 62.1 °F 55.8 °F 80% 30.19 in 10.0 mi Calm Calm - N/A   Clear
8:35 PM 60.6 °F 55.2 °F 82% 30.19 in 10.0 mi Calm Calm - N/A   Clear
8:55 PM 61.3 °F 54.7 °F 79% 30.19 in 10.0 mi Calm Calm - N/A   Clear
9:15 PM 63.1 °F 52.3 °F 68% 30.19 in 10.0 mi Calm Calm - N/A   Clear
9:35 PM 60.3 °F 53.1 °F 77% 30.20 in 10.0 mi Calm Calm - N/A   Clear
9:55 PM 60.1 °F 53.2 °F 78% 30.21 in 10.0 mi Calm Calm - N/A   Clear
10:15 PM 58.3 °F 53.1 °F 83% 30.21 in 10.0 mi Calm Calm - N/A   Clear
10:35 PM 58.1 °F 53.1 °F 83% 30.21 in 10.0 mi Calm Calm - N/A   Clear
10:55 PM 57.6 °F 53.1 °F 85% 30.22 in 10.0 mi Calm Calm - N/A   Clear
11:15 PM 57.4 °F 53.2 °F 86% 30.21 in 10.0 mi Calm Calm - N/A   Clear
11:35 PM 56.3 °F 53.1 °F 89% 30.22 in 10.0 mi Calm Calm - N/A   Clear
11:55 PM 55.4 °F 52.2 °F 89% 30.22 in 10.0 mi Calm Calm - N/A   Clear